Weather in Slavkov u Brna

Czech Republic     49°09′12″N   16°52′47″E
temp.,
°C
wind,
m/s
gust,
m/s
humid.,
%
clouds,
%
prec.,
mm/h
press.,
hPa
HPBL,
m
15 april, thu
thu1523:00+2n51172100 0.0 1024656
02:00+1n378499 0.4 1024452
05:000nw2578100 0.0 1023118
08:00+2nnw5970100 0.0 1023680
11:00+4nnw6762100 0.0 10231272
14:00+4nnw6868100 0.1 10231152
17:00+4nnw6867100 0.1 10221124
20:00+2nw51083100 0.1 1022662
16 april, fri
fri1623:00+1nw498191 0.0 1022453
02:000nw378394 0.0 1022316
05:000wnw238586 0.0 1021117
08:00+2nw367564 0.1 1021537
11:00+5nnw3467100 0.0 10211068
14:00+6nnw447298 0.1 1021923
17:00+4nnw458783 0.0 1021492
20:00+3nnw248684 0.1 1022352
17 april, sat
sat1723:00+3nnw248893 0.0 1022304
02:00+3nnw1285100 0.0 1021109
05:00+3nnw128884 0.0 1021154
08:00+3n1294100 0.0 1021417
11:00+4nne2395100 0.1 1021551
14:00+4ne3493100 0.2 1020619
17:00+4ne2495100 0.1 1020400
20:00+4nne2695100 0.1 1020610
18 april, sun
sun1823:00+4nne2698100 0.2 1020727
02:00+4n2697100 0.4 1019658
05:00+4n2793100 0.0 1019318
08:00+5n3788100 0.0 1018545
11:00+7ne468299 0.1 1018847
14:00+9nne4669100 0.3 10171193
17:00+8nne5672100 0.1 10171004
20:00+6n388999 0.3 1017269
19 april, mon
mon1923:00+6n388399 0.0 1017362
02:00+6n4881100 0.0 1016827
05:00+6nnw4788100 0.2 1015901
08:00+5nnw3893100 1.3 1014889
11:00+5n4793100 1.6 1014873
14:00+6n4793100 3.3 1013964
17:00+5n4695100 1.8 1012875
20:00+5n4895100 2.3 1012475